Flag for U.S.A. Weather past 2 weeks in Honolulu, Hawaii, U.S.A.

Now
77 °F

Passing clouds.


Feels Like: 79 °F
Forecast: 74 / 86 °F
Wind: 3 mph from North

Location: Honolulu International Airport

Current Time: Sep 22, 2014 at 7:10:24 AM

Latest Report: Sep 22, 2014 at 5:53 AM


Visibility: 10 mi

Pressure: 30.00 "Hg

Humidity: 79%

Dew point: 70 °F

Location of HonoluluLocation

Historic Weather in Honolulu — Graph

°F

Honolulu temperature yesterday

Maximum temperature yesterday: 89 °F (at 9:53 AM)
Minimum temperature yesterday: 77 °F (at 5:53 AM)
Average temperature yesterday: 83 °F

Past Weeks' High & Low Weather Summary

 TemperatureHumidityPressure
High93 °F (Sep 7, 1:53 PM)97% (Sep 15, 5:53 AM)30.03 "Hg (Sep 15, 5:53 AM)
Low73 °F (Sep 14, 3:53 AM)34% (Sep 7, 12:53 PM)29.87 "Hg (Sep 15, 3:53 PM)
Average82 °F64%29.95 "Hg
* Reported Sep 7 5:53 AM — Sep 22 5:53 AM, Honolulu, Weather by CustomWeather, © 2014

Note: Actual official high and low records may vary slightly from our data, if they occured in-between our weather recording intervals... More about our weather records

Advertising

Honolulu weather history for previous 24 hours

 ConditionsComfort  
Time TempWeatherWind HumidityBarometerVisibility
5:53 AM
Sep 22
77 °FPassing clouds.3 mph79%30.00 "Hg10 mi
4:53 AM77 °FPassing clouds.5 mph77%29.99 "Hg10 mi
3:53 AM79 °FPassing clouds.3 mph72%29.98 "Hg10 mi
2:53 AM80 °FPassing clouds.3 mph69%29.98 "Hg10 mi
1:53 AM80 °FPassing clouds.6 mph69%29.99 "Hg10 mi
12:53 AM81 °FPassing clouds.6 mph67%30.00 "Hg10 mi
11:53 PM
Sep 21
81 °FPassing clouds.8 mph65%30.01 "Hg10 mi
10:53 PM82 °FPassing clouds.7 mph67%30.03 "Hg10 mi
9:53 PM82 °FPassing clouds.6 mph67%30.02 "Hg10 mi
8:53 PM82 °FPassing clouds.7 mph67%30.01 "Hg10 mi
7:53 PM83 °FPassing clouds.10 mph63%29.99 "Hg10 mi
6:53 PM83 °FPassing clouds.12 mph65%29.96 "Hg10 mi
5:53 PM85 °FScattered clouds.14 mph61%29.93 "Hg10 mi
4:53 PM86 °FScattered clouds.12 mph59%29.91 "Hg10 mi
3:53 PM88 °FBroken clouds.9 mph55%29.90 "Hg10 mi
2:53 PM88 °FBroken clouds.10 mph61%29.90 "Hg10 mi
1:53 PM89 °FScattered clouds.6 mph53%29.91 "Hg10 mi
12:53 PM89 °FScattered clouds.6 mph55%29.93 "Hg10 mi
11:53 AM89 °FScattered clouds.9 mph57%29.95 "Hg10 mi
10:53 AM88 °FBroken clouds.9 mph59%29.97 "Hg10 mi
9:53 AM89 °FBroken clouds.5 mph55%29.98 "Hg10 mi
8:53 AM85 °FScattered clouds.6 mph63%29.98 "Hg10 mi
7:53 AM82 °FScattered clouds.3 mph70%29.97 "Hg10 mi
Weather by CustomWeather, © 2014

See weather overviewHow to use our weather pages